コワルスキー彗星

391P/Kowalski (2018)

English version
Home page
Updated on June 14, 2021

---------------------------------------------------------------------

・ プロフィール

符号 391P/2019 U2
検出日 2019年10月22日、10月25日
検出光度 20.3等、21.5等
検出者 K. Hills (Tacanade Observatory, La Palma), Pan-STARRS 1 telescope (Haleakala)

・ 軌道要素

Epoch 2018 Mar. 23.0 TT = JDT 2458200.5                                         
T 2018 Mar. 14.82858 TT                                 Rudenko                 
q   4.1082291            (2000.0)            P               Q                  
n   0.09767176     Peri.  186.15343     +0.64875109     +0.70013752             
a   4.6697115      Node   124.74776     -0.68181673     +0.70881134             
e   0.1202392      Incl.   21.28040     -0.33800586     -0.08598802             
P  10.1                                                                         
From 262 observations 2005 May 10-2021 Jan. 5, mean residual 0".8.              

・ 光度変化

        m1 = 3.0 + 5 logΔ + 23.0 log r

        ※ 灰色の曲線は、m1 = -6.5 + 5 logΔ + 35 log r(t + 600) の光度曲線です。

---------------------------------------------------------------------

軌道要素はM.P.E.C. 2021-F20に掲載されたものです。
光度グラフはComet for Windowsで作成したものです。

---------------------------------------------------------------------

Copyright(C) Seiichi Yoshida (comet@aerith.net). All rights reserved.